This demonstration page uses our WeatherBlox Daily Observations layout. Learn more.

Left ArrowRight Arrow

38.83388, -104.82136

Hourly Observations for May 26, 2022

Temp ( °F °C ) Dew Point ( °F °C ) Humidity (%) Winds ( mph kmh ) Pressure ( in mb ) Visibility ( mi km ) Precip ( " mm )
12:58 am 00:58 Clear 53 11.6 30 -1.2 41 41 Calm 29.63 1004 10 16 0.00 0.00
1:58 am 01:58 Clear 57 13.9 23 -4.8 27 27 Calm 29.67 1005 10 16 0.00 0.00
2:58 am 02:58 Clear 51 10.3 28 -2.1 42 42 NW 3 6 29.63 1004 10 16 0.00 0.00
3:58 am 03:58 Clear 52 10.9 26 -3.6 36 36 NW 5 7 29.67 1005 10 16 0.00 0.00
4:58 am 04:58 Clear 51 10.4 27 -3 39 39 WNW 7 11 29.68 1005 10 16 0.00 0.00
5:58 am 05:58 Sunny 52 11 28 -2.1 40 40 WNW 7 11 29.72 1007 10 16 0.00 0.00
6:58 am 06:58 Sunny 57 13.9 26 -3.4 30 30 Calm 29.83 1010 10 16 0.00 0.00
7:56 am 07:56 Sunny 59 14.9 31 -0.4 35 35 Calm 29.89 1012 10 16 0.00 0.00
8:58 am 08:58 Sunny 61 16.3 30 -0.9 31 31 SE 5 7 29.91 1013 10 16 0.00 0.00
9:58 am 09:58 Sunny 65 18.1 32 -0.2 29 29 SE 6 9 29.92 1013 10 16 0.00 0.00
10:56 am 10:56 Sunny 67 19.3 31 -0.7 26 26 ESE 6 9 29.91 1013 10 16 0.00 0.00
11:56 am 11:56 Sunny 70 20.9 34 1.2 27 27 SE 9 15 29.93 1014 10 16 0.00 0.00
12:56 pm 12:56 Sunny 71 21.4 33 0.5 25 25 SE 13 20 29.94 1014 10 16 0.00 0.00
1:47 pm 13:47 Sunny 72 22 34 1 25 25 SSE 14 22 29.91 1013 10 16 0.00 0.00
1:56 pm 13:56 Sunny 71 21.8 31 -0.3 23 23 S 13 20 29.90 1012 10 16 0.00 0.00
2:05 pm 14:05 Sunny 72 22 32 0 23 23 SSE 15 24 29.90 1012 10 16 0.00 0.00
2:58 pm 14:58 Sunny 72 22.1 31 -0.6 22 22 SSE 14 22 29.93 1014 10 16 0.00 0.00
3:55 pm 15:55 Sunny 72 22 32 0 23 23 SE 15 24 29.89 1012 10 16 0.00 0.00
3:58 pm 15:58 Sunny 71 21.9 32 -0.2 23 23 S 15 24 29.92 1013 10 16 0.00 0.00
3:59 pm 15:59 Sunny 72 22 32 0 23 23 S 12 19 29.92 1013 10 16 0.00 0.00
4:05 pm 16:05 Sunny 72 22 30 -1 22 22 SE 15 24 29.91 1013 10 16 0.00 0.00
4:58 pm 16:58 Sunny 72 22 32 -0.1 23 23 SE 13 20 29.91 1013 10 16 0.00 0.00
5:41 pm 17:41 Sunny 70 21 32 0 25 25 SSE 13 20 29.90 1012 10 16 0.00 0.00
5:58 pm 17:58 Sunny 69 20.4 30 -0.9 24 24 S 14 22 29.85 1011 10 16 0.00 0.00
6:58 pm 18:58 undefined N/A N/A N/A undefined N/A N/A 10 16 0.00 0.00
8:58 pm 20:58 undefined 66 18.7 31 -0.7 27 27 S 13 20 29.78 1009 10 16 0.00 0.00
9:58 pm 21:58 Clear 65 18.5 29 -1.4 26 26 SW 10 17 29.79 1009 10 16 0.00 0.00
10:58 pm 22:58 Cloudy 65 18.2 29 -1.6 26 26 SSW 8 13 29.90 1012 10 16 0.00 0.00
11:58 pm 23:58 Cloudy 65 18.3 28 -2.1 25 25 SW 12 19 29.90 1013 10 16 0.00 0.00

Powered by AerisWeather